Location: Niedergestelen
(46.3129°N, 7.7822°E)
Time: 14:04:17
(UTC+00:00)

Cosmos 2056 Rocket - Pass Details

Date: 14 April 2021
Orbit: 742 x 800 km, 74.0° (Epoch: 05 May)

Event Time Altitude Azimuth Distance (km) Brightness Sun altitude
Rises 18:43:11 0° 324° (NW) 3,193 7.8 -5.4°
Reaches altitude 10° 18:46:11 10° 306° (NW) 2,267 7.5 -5.9°
Maximum altitude 18:49:36 18° 264° (W) 1,769 6.4 -6.5°
Drops below altitude 10° 18:53:01 10° 222° (SW) 2,271 6.2 -7.0°
Sets 18:56:03 0° 204° (SSW) 3,200 6.7 -7.5°
